Regional Weather Roundup
Issued by NWS

Home | Current Version | Previous Version | Graphics & Text | Print | Product List | Glossary On
Versions: 1 2 3 4 5 6 7 8 9 10 11 12 13 14 15 16 17 18 19 20 21 22 23 24 25 26 27 28 29 30 31 32 33 34 35 36 37 38 39 40 41 42 43 44 45 46 47 48 49 50
214
ASUS43 KLSX 240210
RWRMO

WEATHER SUMMARY FOR MISSOURI
NATIONAL WEATHER SERVICE SPRINGFIELD MO
900 PM CDT SUN APR 23 2017

NOTE: "FAIR" INDICATES FEW OR NO CLOUDS BELOW 12,000 FEET WITH NO
       SIGNIFICANT WEATHER AND/OR OBSTRUCTIONS TO VISIBILITY.
       CURRENT SKY AND/OR WEATHER CONDITIONS ARE NOT AVAILABLE FOR
       CHILLICOTHE AND FARMINGTON.

MOZ001>031-035>038-043-044-053-054-240300-
...NORTHERN AND WESTERN MISSOURI...

CITY           SKY/WX    TMP DP  RH WIND       PRES   REMARKS
KANSAS CTY INT PTCLDY    56  36  47 S7        29.98F
KANSAS C DTWN  PTCLDY    62  33  33 S7        29.98F
LEE`S SUMMIT   CLEAR     62  36  37 S7        30.00F
ST JOSEPH      CLOUDY    57  37  47 MISG      29.98S
CHILLICOTHE      N/A     54  41  61 CALM      30.01S
KIRKSVILLE     CLOUDY    60  29  30 SE5       30.01S

$$
MOZ066>068-077>081-088>096-101>105-240300-
...SOUTHWEST MISSOURI...

CITY           SKY/WX    TMP DP  RH WIND       PRES   REMARKS
SPRINGFIELD    CLEAR     52  40  63 CALM      30.01F
JOPLIN         CLEAR     53  43  68 CALM      30.01F
BRANSON        PTCLDY    59  36  41 CALM      30.02F

$$
MOZ032>034-039>042-045>050-055>058-069>072-240300-
...CENTRAL MISSOURI...

CITY           SKY/WX    TMP DP  RH WIND       PRES   REMARKS
COLUMBIA       CLEAR     64  28  25 CALM      30.01F
JEFFERSON CITY CLEAR     58  35  42 CALM      30.00S
ROLLA          CLEAR     48  40  73 CALM      30.00F
WHITEMAN AFB   CLOUDY    60  34  37 CALM      30.00R

$$
MOZ051-052-059>065-240300-
...EAST CENTRAL MISSOURI...

CITY           SKY/WX    TMP DP  RH WIND       PRES   REMARKS
ST LOUIS INTL  CLEAR     64  30  27 CALM      30.00S
SPIRIT OF STL  PTCLDY    53  39  59 W5        29.99S
ST CHARLES     CLEAR     56  35  45 N3        29.99S

$$
MOZ072>076-082>087-097>100-106>115-240300-
...SOUTH CENTRAL AND SOUTHEAST MISSOURI...

CITY           SKY/WX    TMP DP  RH WIND       PRES   REMARKS
CAPE GIRARDEAU CLEAR     55  41  59 NE3       29.95R
POPLAR BLUFF   CLEAR     56  47  71 NW3       29.96S
WEST PLAINS    CLEAR     58  31  35 CALM      30.01S

$$




USA.gov is the U.S. government's official web portal to all federal, state and local government web resources and services.